Location: LDNL
(36.4545°S, 141.6685°E)
Time: 12:14:42
(UTC+10:00)

Tiros 1 despin weight - Pass Details

Date: 11 August 2022
Orbit: 590 x 639 km, 48.2° (Epoch: 23 September)

Event Time Altitude Azimuth Distance (km) Brightness Sun altitude
Rises 04:17:30 0° 240° (WSW) 2,953 - -37.3°
Reaches altitude 10° 04:20:24 10° 222° (SW) 2,049 - -36.7°
Maximum altitude 04:23:52 20° 175° (S) 1,511 - -36.0°
Exits shadow 04:26:11 14° 140° (SE) 1,776 ? -35.6°
Drops below altitude 10° 04:27:20 10° 128° (SE) 2,052 ? -35.3°
Sets 04:30:15 0° 111° (ESE) 2,959 ? -34.7°
